Regional Weather Roundup
Issued by NWS Sioux Falls, SD

Home | Current Version | Previous Version | Text Only | Print | Product List | Glossary On
Versions: 1 2 3 4 5 6 7 8 9 10 11 12 13 14 15 16 17 18 19 20 21 22 23 24 25 26 27 28 29 30 31 32 33 34 35 36 37 38 39 40 41 42 43 44 45 46 47 48 49 50
000
ASUS43 KFSD 010510
RWRFSD

WEATHER ROUNDUP FOR SE SOUTH DAKOTA/SW MINNESOTA/NW IOWA
NATIONAL WEATHER SERVICE SIOUX FALLS SD
1100 PM CST SAT JAN 31 2015

NOTE: "FAIR" INDICATES FEW OR NO CLOUDS BELOW 12,000 FEET WITH NO
SIGNIFICANT WEATHER AND OR OBSTRUCTIONS TO VISIBILITY.


SDZ038>040-050-052>070-010600-
SOUTHEAST SOUTH DAKOTA

CITY           SKY/WX    TMP DP  RH WIND       PRES   REMARKS
CHAMBERLAIN    LGT SNOW  11   8  85 N17       30.15R WCI  -6
HURON          CLOUDY    14   4  64 N17       30.19R WCI  -3
MADISON        LGT SNOW  18  18 100 NE16G23   30.06R WCI   3
MITCHELL       LGT SNOW  18  15  88 N21G28    30.13R VSB 3/4 WCI   1
SIOUX FALLS    LGT SNOW  24  21  88 NE18      30.04R VSB 1   WCI  10
WINNER         LGT SNOW  15  11  83 N21       30.12R VSB 3/4 WCI  -2
YANKTON        CLOUDY    25  23  93 NE17G24   30.02R WCI  11
$$

MNZ071-072-080-081-089-090-097-098-010600-
SOUTHWEST MINNESOTA

CITY           SKY/WX    TMP DP  RH WIND       PRES   REMARKS
FAIRMONT       CLOUDY    25  19  80 NE18      30.04F WCI  11
JACKSON        LGT SNOW  27  23  86 NE18      30.03F WCI  13
LUVERNE        LGT SNOW  27  23  86 NE18G26   30.04R WCI  13
MARSHALL       CLOUDY    21   9  58 NE17      30.15R WCI   7
MONTEVIDEO     CLOUDY    21  10  63 E17       30.20R WCI   7
PIPESTONE      LGT SNOW  21  19  93 NE13      30.04S WCI   9
REDWOOD FALLS  CLOUDY    25  11  55 NE13G24   30.14F WCI  14
TRACY          CLOUDY    24  19  80 NE15      30.11S WCI  11
WINDOM         LGT SNOW  23  21  93 NE18      30.06F WCI   9
WORTHINGTON    CLOUDY    27  19  74 NE22      30.03F WCI  12
$$

IAZ001>003-012>014-020>022-031-032-NEZ013-014-SDZ071-010600-
NORTHWEST IOWA

CITY           SKY/WX    TMP DP  RH WIND       PRES   REMARKS
CHEROKEE       LGT SNOW  28  28  98 NE13      29.97S WCI  17
DENISON        LGT SNOW  32  32 100 E8        29.89F WCI  25
ESTHERVILLE    LGT SNOW  24  22  91 NE21      30.02F VSB 1   WCI   9
LE MARS        LGT SNOW  28  27  93 NE16G25   29.97S WCI  17
ORANGE CITY    LGT SNOW  27  25  93 E14G24    29.98R WCI  15
SHELDON        LGT SNOW  25  25 100 NE22G31   29.98S WCI  10
SIOUX CITY     LGT SNOW  31  29  92 NE16      29.93F VSB 1   WCI  20
SPENCER        LGT SNOW  26  22  84 NE21      30.00F FOG     WCI  12
STORM LAKE     LGT SNOW  28  28 100 NE21      29.95S VSB 1   WCI  15
$$

ABBREVIATIONS USED IN REMARKS
   TC - TEMPERATURE IN CELSIUS
  WCI - WIND CHILL INDEX
   HX - HEAT INDEX
  VSB - VISIBILITY



USA.gov is the U.S. government's official web portal to all federal, state and local government web resources and services.